Preview of NWS' New Version of Forecast
This preview is not operational and should not be used for support decisions.

Regional Weather Roundup (RWR)

Issued by National Weather Service (NWS)

                            
000
ASUS46 KPQR 180610
RWROR 

OREGON REGIONAL WEATHER ROUNDUP
NATIONAL WEATHER SERVICE PORTLAND OR
1100 PM PDT WED APR 17 2019

NOTE: "FAIR" INDICATES FEW OR NO CLOUDS BELOW 12,000 FEET WITH
NO SIGNIFICANT WEATHER AND/OR OBSTRUCTIONS TO VISIBILITY.

ORZ001>013-180700-
NORTHWEST OREGON

  
CITY           SKY/WX    TMP DP  RH WIND       PRES   REMARKS
ASTORIA        MOCLDY    50  47  89 SE3       30.31F                  
6HR MIN TEMP:  50; 6HR MAX TEMP:  56;                                

TILLAMOOK      PTCLDY    50  46  87 CALM      30.34S                  
NEWPORT        CLOUDY    50  46  87 CALM      30.34F                  
PORTLAND       MOCLDY    54  46  74 E5        30.31F                  
6HR MIN TEMP:  51; 6HR MAX TEMP:  67;                                

VANCOUVER WA   CLEAR     53  45  74 CALM      30.30F                  
6HR MIN TEMP:  52; 6HR MAX TEMP:  66;                                

SCAPPOOSE      CLEAR     53  48  83 CALM      30.31R                  
6HR MIN TEMP:  53; 6HR MAX TEMP:  67;                                

HILLSBORO      CLEAR     49  46  90 W5        30.31R                  
6HR MIN TEMP:  49; 6HR MAX TEMP:  65;                                

AURORA         CLEAR     54  48  80 CALM      30.31F                  
6HR MIN TEMP:  53; 6HR MAX TEMP:  65;                                

MCMINNVILLE    PTCLDY    53  48  83 CALM      30.30S                  
6HR MIN TEMP:  52; 6HR MAX TEMP:  64;                                

SALEM          CLEAR     52  47  83 SW3       30.30S                  
6HR MIN TEMP:  51; 6HR MAX TEMP:  66;                                

CORVALLIS      CLEAR     52  50  93 W5        30.31S                  
EUGENE         CLEAR     53  49  86 SW5       30.30S                  
6HR MIN TEMP:  53; 6HR MAX TEMP:  68;                                

$$

ORZ021-028-180700-
SOUTHWEST OREGON

  
CITY           SKY/WX    TMP DP  RH WIND       PRES   REMARKS
NORTH BEND     CLEAR     52  51  97 N3        30.33R FOG              
6HR MIN TEMP:  52; 6HR MAX TEMP:  58;                                

BROOKINGS      CLEAR     51  49  92 CALM      30.28R                  
ROSEBURG       CLEAR     57  49  74 CALM      30.29S                  
6HR MIN TEMP:  57; 6HR MAX TEMP:  73;                                

SEXTON SUMMIT  CLEAR     53  35  50 N9        30.34R                  
6HR MIN TEMP:  51; 6HR MAX TEMP:  60;                                

GRANTS PASS    FAIR      55  48  76 CALM      30.31R                  
MEDFORD        CLEAR     58  45  62 CALM      30.28R                  
6HR MIN TEMP:  57; 6HR MAX TEMP:  73;                                

$$

ORZ014>016-041-180700-
COLUMBIA GORGE

  
CITY           SKY/WX    TMP DP  RH WIND       PRES   REMARKS
TROUTDALE      CLEAR     52  46  80 E6        30.31S                  
6HR MIN TEMP:  51; 6HR MAX TEMP:  66;                                

HOOD RIVER     CLEAR     50  43  76 MISG      30.30S                  
THE DALLES     CLEAR     58  43  57 NW16      30.27F                  
6HR MIN TEMP:  57; 6HR MAX TEMP:  66;                                

$$

ORZ029>031-041-044-049-050-061>064-502-503-505>511-180700-
EASTERN OREGON

  
CITY           SKY/WX    TMP DP  RH WIND       PRES   REMARKS
MADRAS         CLEAR     50  41  71 CALM      30.32R                  
REDMOND        CLEAR     47  37  68 S3        30.31R                  
6HR MIN TEMP:  46; 6HR MAX TEMP:  68;                                

BEND           CLEAR     46  37  71 S5        30.32S                  
PRINEVILLE     CLEAR     45  37  76 CALM      30.32S                  
KLAMATH FALLS  CLEAR     45  39  79 CALM      30.32S                  
6HR MIN TEMP:  42; 6HR MAX TEMP:  67;                                

LAKEVIEW       CLEAR     42  38  85 N8        30.35R                  
HERMISTON      CLEAR     53  40  61 S9        30.26R                  
6HR MIN TEMP:  52; 6HR MAX TEMP:  70;                                

PENDLETON      CLEAR     47  39  74 SE6       30.28R                  
6HR MIN TEMP:  47; 6HR MAX TEMP:  64;                                

JOHN DAY       CLEAR     47  39  72 SE9       30.33R                  
MEACHAM        CLEAR     34  31  88 CALM      30.31S                  
6HR MIN TEMP:  34; 6HR MAX TEMP:  54;                                

LA GRANDE      CLEAR     45  38  76 SW5       30.32R                  
6HR MIN TEMP:  43; 6HR MAX TEMP:  59;                                

BAKER CITY     CLEAR     41  37  86 CALM      30.32R                  
6HR MIN TEMP:  41; 6HR MAX TEMP:  61;                                

BURNS          CLEAR     41  37  86 N3        30.33R                  
6HR MIN TEMP:  41; 6HR MAX TEMP:  65;                                

ROME             N/A     47  40  76 SE10      30.31R                  
6HR MIN TEMP:  47; 6HR MAX TEMP:  64;                                

ONTARIO        CLEAR     51  38  60 SW3       30.31R                  
6HR MIN TEMP:  49; 6HR MAX TEMP:  68;                                

$$